Location: Koszewko
(53.2876°N, 14.9061°E)
Time: 22:17:38
(UTC+00:00)

Cosmos 1674 Rocket - Pass Details

Date: 03 March 2021
Orbit: 603 x 630 km, 82.5° (Epoch: 12 April)

Event Time Altitude Azimuth Distance (km) Brightness Sun altitude
Rises 19:02:17 0° 353° (N) 2,876 7.3 -21.4°
Reaches altitude 10° 19:04:38 10° 0° (N) 1,965 6.3 -21.8°
Enters shadow 19:07:40 35° 35° (NE) 993 4.4 -22.2°
